Date String (YYYY-MM-DD hh:mm:ss) UTC,Instrument flags,Ambient pressure (hPa),Sample flow (lpm),Bypass flow (lpm),Sample temperature (°C),Ambient temperature (°C),ASC tube jacket temperature (°C),LED temperature (°C),Box temperature (°C),Sample RH (%),Span deviation,Mass concentration (μg/m³),Mass concentration (μg/m³),Mass concentration (μg/m³)
DateTimeUTC,F1_M11,P_M11,Q1_M11,Q2_M11,T1_M11,T2_M11,T3_M11,T4_M11,T5_M11,U1_M11,ZSPAN_M11,X0_M11,X2_M11,X1_M11
2023-05-12 14:00:00,,0829.7,5.03,0.00,23.9,21.8,00.0,32.3,25.2,35.2,0000.0,0008.10,0001.33,0000.55
2023-05-12 14:01:00,,0829.7,5.00,0.00,24.1,21.8,00.0,32.3,25.3,34.8,0000.0,0007.57,0001.31,0000.55
2023-05-12 14:02:00,,0829.7,4.99,0.00,24.3,21.7,00.0,32.3,25.3,34.3,0000.0,0007.41,0001.34,0000.55
2023-05-12 14:03:00,,0829.7,5.02,0.00,24.4,21.7,00.0,32.3,25.3,34.1,0000.0,0007.47,0001.39,0000.56
2023-05-12 14:04:00,,0829.7,4.99,0.00,24.4,21.7,00.0,32.3,25.2,33.8,0000.0,0006.78,0001.41,0000.57
2023-05-12 14:05:00,,0829.7,4.99,0.00,24.4,21.7,00.0,32.3,25.2,33.9,0000.0,0006.90,0001.42,0000.57
2023-05-12 14:06:00,,0829.8,4.99,0.00,24.4,21.7,00.0,32.4,25.2,33.8,0000.0,0007.13,0001.51,0000.59
2023-05-12 14:07:00,,0829.8,5.00,0.00,24.4,21.7,00.0,32.4,25.2,33.7,0000.0,0007.19,0001.60,0000.62
2023-05-12 14:08:00,,0829.8,5.00,0.00,24.4,21.7,00.0,32.4,25.2,33.7,0000.0,0006.23,0001.65,0000.64
2023-05-12 14:09:00,,0829.8,5.00,0.00,24.4,21.7,00.0,32.4,25.2,33.8,0000.0,0005.20,0001.65,0000.66
2023-05-12 14:10:00,,0829.8,5.01,0.00,24.4,21.7,00.0,32.5,25.2,33.9,0000.0,0005.05,0001.73,0000.71
2023-05-12 14:11:00,,0829.8,5.00,0.00,24.4,21.7,00.0,32.5,25.2,34.0,0000.0,0005.23,0001.85,0000.74
2023-05-12 14:12:00,,0829.8,4.99,0.00,24.3,21.7,00.0,32.5,25.2,34.0,0000.0,0005.29,0001.90,0000.76
2023-05-12 14:13:00,,0829.8,4.99,0.00,24.3,21.7,00.0,32.5,25.2,34.0,0000.0,0005.13,0001.86,0000.77
2023-05-12 14:14:00,,0829.9,5.00,0.00,24.3,21.7,00.0,32.5,25.2,33.9,0000.0,0005.18,0001.86,0000.77
2023-05-12 14:15:00,,0829.9,5.01,0.00,24.3,21.6,00.0,32.5,25.1,33.9,0000.0,0006.51,0001.89,0000.78
2023-05-12 14:16:00,,0829.9,5.01,0.00,24.2,21.6,00.0,32.5,25.1,34.1,0000.0,0006.95,0001.98,0000.80
2023-05-12 14:17:00,,0829.9,5.00,0.00,24.2,21.6,00.0,32.5,25.1,34.2,0000.0,0007.16,0002.03,0000.84
2023-05-12 14:18:00,,0829.8,5.00,0.00,24.2,21.6,00.0,32.4,25.1,34.1,0000.0,0006.97,0002.00,0000.86
2023-05-12 14:19:00,,0829.8,4.99,0.00,24.1,21.7,00.0,32.4,25.1,34.2,0000.0,0006.75,0002.05,0000.88
2023-05-12 14:20:00,,0829.9,5.00,0.00,24.1,21.7,00.0,32.4,25.1,34.2,0000.0,0006.51,0002.08,0000.89
2023-05-12 14:21:00,,0829.9,5.00,0.00,24.1,21.7,00.0,32.4,25.1,34.2,0000.0,0006.44,0002.06,0000.87
2023-05-12 14:22:00,,0829.9,5.00,0.00,24.1,21.7,00.0,32.4,25.1,34.2,0000.0,0006.54,0002.09,0000.87
2023-05-12 14:23:00,,0829.9,5.00,0.00,24.0,21.7,00.0,32.4,25.1,34.3,0000.0,0006.99,0002.20,0000.88
2023-05-12 14:24:00,,0829.9,5.00,0.00,24.0,21.7,00.0,32.4,25.1,34.2,0000.0,0007.33,0002.33,0000.91
2023-05-12 14:25:00,,0830.0,5.01,0.00,24.0,21.7,00.0,32.4,25.1,34.3,0000.0,0007.31,0002.41,0000.95
2023-05-12 14:26:00,,0830.0,5.01,0.00,24.0,21.7,00.0,32.3,25.1,34.5,0000.0,0006.22,0002.47,0000.99
2023-05-12 14:27:00,,0830.0,5.00,0.00,23.9,21.7,00.0,32.3,25.1,34.5,0000.0,0005.95,0002.57,0001.03
2023-05-12 14:28:00,,0830.0,5.01,0.00,23.9,21.7,00.0,32.3,25.1,34.6,0000.0,0006.17,0002.68,0001.06
2023-05-12 14:29:00,,0830.0,4.99,0.00,23.9,21.7,00.0,32.3,25.1,34.7,0000.0,0006.37,0002.81,0001.09
2023-05-12 14:30:00,,0830.0,5.00,0.00,23.9,21.7,00.0,32.3,25.1,34.7,0000.0,0006.96,0003.05,0001.14
2023-05-12 14:31:00,,0830.0,5.00,0.00,23.8,21.7,00.0,32.3,25.1,34.8,0000.0,0007.48,0003.20,0001.19
2023-05-12 14:32:00,,0829.9,4.98,0.00,23.8,21.7,00.0,32.2,25.0,35.0,0000.0,0007.66,0003.28,0001.24
2023-05-12 14:33:00,,0829.9,5.02,0.00,23.9,21.7,00.0,32.2,25.1,35.3,0000.0,0007.85,0003.32,0001.27
2023-05-12 14:34:00,,0829.9,4.99,0.00,24.1,21.7,00.0,32.2,25.2,34.7,0000.0,0007.86,0003.33,0001.32
2023-05-12 14:35:00,,0830.0,5.00,0.00,24.3,21.7,00.0,32.2,25.2,34.2,0000.0,0007.71,0003.31,0001.36
2023-05-12 14:36:00,,0829.9,5.02,0.00,24.4,21.6,00.0,32.2,25.2,33.8,0000.0,0007.85,0003.35,0001.39
2023-05-12 14:37:00,,0830.0,4.99,0.00,24.4,21.6,00.0,32.3,25.1,33.8,0000.0,0007.99,0003.41,0001.41
2023-05-12 14:38:00,,0830.0,4.99,0.00,24.5,21.6,00.0,32.3,25.1,33.6,0000.0,0008.08,0003.45,0001.42
2023-05-12 14:39:00,,0830.0,5.00,0.00,24.4,21.5,00.0,32.3,25.1,33.7,0000.0,0008.04,0003.44,0001.46
2023-05-12 14:40:00,,0830.1,5.00,0.00,24.4,21.5,00.0,32.4,25.1,33.6,0000.0,0008.04,0003.45,0001.48
2023-05-12 14:41:00,,0830.0,5.01,0.00,24.4,21.5,00.0,32.4,25.1,33.9,0000.0,0008.01,0003.43,0001.49
2023-05-12 14:42:00,,0830.0,5.00,0.00,24.4,21.5,00.0,32.4,25.0,33.8,0000.0,0007.70,0003.34,0001.48
2023-05-12 14:43:00,,0830.0,5.00,0.00,24.4,21.5,00.0,32.4,25.0,33.9,0000.0,0007.49,0003.25,0001.46
2023-05-12 14:44:00,,0830.0,5.00,0.00,24.3,21.5,00.0,32.4,25.0,33.8,0000.0,0007.18,0003.20,0001.45
2023-05-12 14:45:00,,0830.0,5.00,0.00,24.3,21.4,00.0,32.4,25.0,33.8,0000.0,0006.88,0003.16,0001.42
2023-05-12 14:46:00,,0830.0,5.00,0.00,24.3,21.5,00.0,32.4,25.0,33.7,0000.0,0006.76,0003.13,0001.36
2023-05-12 14:47:00,,0830.0,5.00,0.00,24.2,21.5,00.0,32.4,25.0,34.2,0000.0,0006.56,0003.05,0001.31
2023-05-12 14:48:00,,0830.0,5.01,0.00,24.2,21.5,00.0,32.4,25.0,34.2,0000.0,0006.24,0002.90,0001.28
2023-05-12 14:49:00,,0830.0,5.01,0.00,24.2,21.5,00.0,32.4,25.0,33.9,0000.0,0005.93,0002.76,0001.21
2023-05-12 14:50:00,,0830.1,5.00,0.00,24.1,21.5,00.0,32.4,25.0,33.8,0000.0,0005.61,0002.57,0001.13
2023-05-12 14:51:00,,0830.1,5.00,0.00,24.1,21.5,00.0,32.4,25.0,33.9,0000.0,0005.45,0002.46,0001.05
2023-05-12 14:52:00,,0830.1,5.00,0.00,24.1,21.5,00.0,32.4,25.0,34.0,0000.0,0005.00,0002.25,0000.99
2023-05-12 14:53:00,,0830.1,5.00,0.00,24.1,21.5,00.0,32.3,25.0,34.0,0000.0,0004.62,0002.08,0000.93
2023-05-12 14:54:00,,0830.1,5.00,0.00,24.0,21.5,00.0,32.3,25.0,34.2,0000.0,0004.46,0002.00,0000.87
2023-05-12 14:55:00,,0830.1,5.00,0.00,24.0,21.5,00.0,32.3,25.0,34.3,0000.0,0004.36,0001.94,0000.84
2023-05-12 14:56:00,,0830.1,5.01,0.00,24.0,21.5,00.0,32.3,25.0,34.4,0000.0,0004.27,0001.87,0000.80
2023-05-12 14:57:00,,0830.2,5.00,0.00,23.9,21.5,00.0,32.3,25.0,34.1,0000.0,0004.08,0001.78,0000.77
2023-05-12 14:58:00,,0830.2,5.01,0.00,23.9,21.4,00.0,32.3,24.9,34.1,0000.0,0004.04,0001.75,0000.75
2023-05-12 14:59:00,,0830.3,5.00,0.00,23.9,21.4,00.0,32.2,24.9,34.1,0000.0,0004.18,0001.79,0000.72
